Powrót do katalogu

DELTA 1 DEB

AktywnySSO
NORAD 42560·DEBRIS·🇺🇸 United States

Wystrzelony Jul 23, 1972 z Vandenberg Space Force Base

Loading…

Następne Przeloty (najbliższe 24 godziny)

TLE

ŚwieżeSource: Space-Track

Epoka: Sep 14, 2026, 03:02 UTC

1 42560U 72058JT  26257.12692521  .00000256  00000-0  75014-4 0  9993
2 42560  97.8933 214.6619 0093820 273.4224 148.0278 14.49115542676604

Śledź DELTA 1 DEB w czasie rzeczywistym z AllMySat

Download on the App Store